Location: Azul
(36.7830°S, 59.8500°W)
Time: 12:44:13
(UTC-03:00)

ISS - Pass Details

Date: 16 August 2020
Orbit: 419 x 420 km, 51.6° (Epoch: 19 September)

Event Time Altitude Azimuth Distance (km) Brightness Sun altitude
Rises 19:28:25 0° 355° (N) 2,363 0.2 -12.9°
Reaches altitude 10° 19:31:23 10° 24° (NNE) 1,509 -1.1 -13.5°
Enters shadow 19:32:34 13° 44° (NE) 1,358 -1.5 -13.7°
